TimeEST,TemperatureF,Dew PointF,Humidity,Sea Level PressureIn,VisibilityMPH,Wind Direction,Wind SpeedMPH,Gust SpeedMPH,PrecipitationIn,Events,Conditions,WindDirDegrees,DateUTC
12:54 AM,10.9,5.0,77,30.26,7.0,Calm,Calm,-,N/A,,Clear,0,2014-01-05 05:54:00
1:54 AM,10.9,5.0,77,30.25,9.0,Calm,Calm,-,N/A,,Clear,0,2014-01-05 06:54:00
2:54 AM,9.0,3.9,80,30.27,10.0,Calm,Calm,-,N/A,,Clear,0,2014-01-05 07:54:00
3:54 AM,8.1,3.9,83,30.26,8.0,Calm,Calm,-,N/A,,Clear,0,2014-01-05 08:54:00
4:54 AM,8.1,3.9,83,30.27,8.0,ESE,4.6,-,N/A,,Clear,110,2014-01-05 09:54:00
5:54 AM,9.0,5.0,84,30.27,8.0,Calm,Calm,-,N/A,,Clear,0,2014-01-05 10:54:00
6:54 AM,6.1,1.0,80,30.27,8.0,Calm,Calm,-,N/A,,Clear,0,2014-01-05 11:54:00
7:54 AM,8.1,3.9,83,30.28,7.0,Calm,Calm,-,N/A,,Clear,0,2014-01-05 12:54:00
8:54 AM,9.0,6.1,88,30.28,7.0,Calm,Calm,-,N/A,,Clear,0,2014-01-05 13:54:00
9:54 AM,14.0,10.0,84,30.28,8.0,Calm,Calm,-,N/A,,Overcast,0,2014-01-05 14:54:00
10:54 AM,18.0,10.9,74,30.24,9.0,Calm,Calm,-,N/A,,Clear,0,2014-01-05 15:54:00
11:54 AM,21.0,12.0,68,30.17,10.0,SE,4.6,-,N/A,,Clear,130,2014-01-05 16:54:00
12:54 PM,28.0,14.0,56,30.12,10.0,Calm,Calm,-,N/A,,Clear,0,2014-01-05 17:54:00
1:40 PM,30.2,17.6,60,30.06,10.0,ESE,3.5,-,N/A,,Overcast,110,2014-01-05 18:40:00
1:54 PM,30.9,16.0,54,30.08,10.0,East,9.2,-,0.00,,Overcast,90,2014-01-05 18:54:00
2:54 PM,32.0,19.0,59,30.06,8.0,East,10.4,-,0.00,,Overcast,80,2014-01-05 19:54:00
3:54 PM,28.9,21.0,72,30.03,7.0,ENE,11.5,-,0.00,,Overcast,70,2014-01-05 20:54:00
4:49 PM,28.4,23.0,80,29.98,4.0,NE,5.8,-,0.00,Rain,Light Freezing Rain,50,2014-01-05 21:49:00
4:54 PM,28.9,24.1,82,30.01,3.0,Calm,Calm,-,0.00,Rain,Light Freezing Rain,0,2014-01-05 21:54:00
5:02 PM,28.4,24.8,86,29.98,4.0,Calm,Calm,-,0.01,Rain,Light Freezing Rain,0,2014-01-05 22:02:00
5:54 PM,28.9,26.1,89,29.96,2.0,East,6.9,-,0.02,Rain,Light Freezing Rain,90,2014-01-05 22:54:00
6:16 PM,28.4,26.6,93,29.92,1.8,ESE,3.5,-,0.02,Rain,Light Freezing Rain,110,2014-01-05 23:16:00
6:26 PM,28.4,26.6,93,29.91,2.0,East,5.8,-,0.02,Rain,Light Freezing Rain,80,2014-01-05 23:26:00
6:36 PM,28.4,28.4,100,29.90,2.0,Variable,3.5,-,0.03,Rain,Light Freezing Rain,0,2014-01-05 23:36:00
6:54 PM,33.1,30.0,89,29.91,4.0,ESE,9.2,-,0.03,Rain,Light Rain,120,2014-01-05 23:54:00
7:07 PM,33.8,30.2,87,29.87,4.0,Variable,6.9,-,0.01,Rain,Light Rain,0,2014-01-06 00:07:00
7:42 PM,32.0,28.4,87,29.85,3.0,Calm,Calm,-,0.01,,Light Drizzle,0,2014-01-06 00:42:00
7:54 PM,33.1,30.9,92,29.86,5.0,ESE,8.1,-,0.01,,Light Drizzle,120,2014-01-06 00:54:00
8:54 PM,34.0,32.0,92,29.81,2.5,NNE,3.5,-,0.01,Rain,Light Rain,30,2014-01-06 01:54:00
9:20 PM,32.0,30.2,93,29.74,1.5,SE,9.2,-,0.01,Rain,Light Rain,130,2014-01-06 02:20:00
9:46 PM,32.0,30.2,93,29.71,1.5,SE,5.8,-,0.04,Rain,Light Rain,130,2014-01-06 02:46:00
9:54 PM,33.1,32.0,96,29.74,1.5,SE,6.9,-,0.04,Rain,Light Rain,140,2014-01-06 02:54:00
10:04 PM,33.8,32.0,93,29.71,2.0,Variable,4.6,-,0.01,Rain,Light Rain,0,2014-01-06 03:04:00
10:19 PM,35.6,33.8,93,29.70,3.0,Calm,Calm,-,0.01,Rain,Light Freezing Rain,0,2014-01-06 03:19:00
10:34 PM,35.6,33.8,93,29.67,3.0,NNE,3.5,-,0.02,Rain,Light Rain,30,2014-01-06 03:34:00
10:54 PM,37.0,35.1,93,29.68,4.0,Variable,6.9,-,0.02,Rain,Light Rain,0,2014-01-06 03:54:00
11:39 PM,35.6,33.8,93,29.62,2.5,Calm,Calm,-,0.00,Rain,Light Rain,0,2014-01-06 04:39:00
11:54 PM,34.0,34.0,100,29.64,1.8,Variable,3.5,-,0.00,Rain,Light Rain,0,2014-01-06 04:54:00